Regional Weather Roundup
Issued by NWS Boston, MA

Home | Current Version | Previous Version | Text Only | Print | Product List | Glossary On
Versions: 1 2 3 4 5 6 7 8 9 10 11 12 13 14 15 16 17 18 19 20 21 22 23 24 25 26 27 28 29 30 31 32 33 34 35 36 37 38 39 40 41 42 43 44 45 46 47 48 49
000
ASUS41 KBOX 281810
RWRBOX

REGIONAL WEATHER ROUNDUP
NATIONAL WEATHER SERVICE TAUNTON MA
200 PM EDT TUE JUL 28 2015

NOTE:  "FAIR" INDICATES FEW OR NO CLOUDS BELOW 12,000 FEET WITH NO
SIGNIFICANT WEATHER AND/OR OBSTRUCTIONS TO VISIBILITY.  THE FOLLOWING
OBSERVATION LOCATIONS DO NOT REPORT PRESENT WEATHER...PROVINCETOWN...
SMITHFIELD...BLOCK ISLAND...KEENE...AND OXFORD.

MAZALL-281900-
EASTERN MASSACHUSETTS

CITY           SKY/WX    TMP DP  RH WIND       PRES   REMARKS
BOSTON         MOSUNNY   82  68  62 SE9       29.93F
6HR MIN TEMP:  73; 6HR MAX TEMP:  84;

BEVERLY        PTSUNNY   81  69  67 E9        29.93F
LAWRENCE       MOSUNNY   87  64  46 VRB6      29.95F
BEDFORD        MOSUNNY   88  65  46 N8        29.92F HX  90
BLUE HILL        N/A     86  67  52 N5        29.95F
NORWOOD        SUNNY     88  68  51 VRB5      29.92F HX  91
MARSHFIELD     SUNNY     84  72  65 E8        29.95S
PLYMOUTH       MOSUNNY   87  69  54 SW7       29.94F HX  91
TAUNTON        MOSUNNY   86  70  58 VRB6      29.92F HX  90
NEW BEDFORD    MOSUNNY   85  69  58 CALM      29.93F
$$

MAZALL-281900-
CAPE COD AND THE ISLANDS

CITY           SKY/WX    TMP DP  RH WIND       PRES   REMARKS
FALMOUTH       MOSUNNY   82  72  69 SW12      29.95F
HYANNIS        SUNNY     83  72  69 SW13      29.93F
CHATHAM        SUNNY     84  72  67 SW9       29.95F
PROVINCETOWN   SUNNY     82  68  61 SW6       29.94F
NANTUCKET      CLOUDY    79  71  76 SW12      29.96F
MARTHAS VNYRD  MOSUNNY   81  72  74 SW10      29.96S
$$

MAZALL-281900-
CENTRAL AND WESTERN MASSACHUSETTS

CITY           SKY/WX    TMP DP  RH WIND       PRES   REMARKS
WORCESTER      MOSUNNY   84  63  49 W7        29.98F
6HR MIN TEMP:  68; 6HR MAX TEMP:  85;

FITCHBURG      MOSUNNY   89  67  47 VRB6      29.95F HX  92
ORANGE         MOSUNNY   88  63  43 NE7       29.95F
SPRINGFIELD    MOSUNNY   89  68  50 W9        29.92F HX  93
WESTFIELD      MOSUNNY   90  64  42 W7        29.93F HX  91
NORTH ADAMS    SUNNY     85  66  53 NW7       29.97F
PITTSFIELD     SUNNY     84  66  54 NW7       29.99F
$$

RIZALL-281900-
RHODE ISLAND

CITY           SKY/WX    TMP DP  RH WIND       PRES   REMARKS
PROVIDENCE     MOSUNNY   85  71  63 VRB7      29.94F HX  90
6HR MIN TEMP:  73; 6HR MAX TEMP:  88;

NEWPORT        SUNNY     82  72  71 S8        29.95F
BLOCK ISLAND   SUNNY     82  73  74 W12       29.97F
SMITHFIELD     MOSUNNY   84  70  61 NW6       29.95F
WESTERLY       SUNNY     83  70  64 SW9       29.96S
$$

CTZALL-281900-
CONNECTICUT

CITY           SKY/WX    TMP DP  RH WIND       PRES   REMARKS
BRADLEY INTL   PTSUNNY   90  65  43 NW10      29.93F HX  92
6HR MIN TEMP:  74; 6HR MAX TEMP:  92;

HARTFORD       MOSUNNY   91  64  40 CALM      29.92F HX  92
BRIDGEPORT     MOSUNNY   86  71  60 SW10      29.95F HX  91
DANBURY        MOSUNNY   87  62  43 N8        29.99F
GROTON         MOSUNNY   81  71  71 SW10      29.94F
NEW HAVEN      SUNNY     84  71  65 S12       29.95F
CHESTER        NOT AVBL
MERIDEN        MOSUNNY   92  61  35 NW10      29.94F HX  92
WILLIMANTIC    SUNNY     90  64  42 VRB7      29.94F HX  91
OXFORD         PTSUNNY   84  66  54 N7        30.01F
$$

MEZ002-015-021-024-NHZ003-005-008-011-012-014-VTZ005-008-281900-
NORTHERN NEW ENGLAND

CITY           SKY/WX    TMP DP  RH WIND       PRES   REMARKS
PORTLAND ME    MOSUNNY   81  65  58 S7        29.94F
6HR MIN TEMP:  65; 6HR MAX TEMP:  81;

BANGOR ME      MOSUNNY   81  67  62 S10       29.91F THUNDER
CONCORD NH     MOSUNNY   90  59  35 VRB6      29.94F
MANCHESTER NH  PTSUNNY   87  64  46 N6        29.92F
NASHUA NH      NOT AVBL
PORTSMOUTH NH  MOSUNNY   82  66  57 E8        29.93F
JAFFREY NH     CLOUDY    82  66  58 CALM      29.98F
KEENE NH       SUNNY     88  63  42 N10       29.95S
BURLINGTON VT  PTSUNNY   85  64  49 VRB3      29.96S
MT. WASHINGTON PTSUNNY   59  50  72 NW13G24     N/A
$$

NYZ052-076-281900-
EASTERN NEW YORK

CITY           SKY/WX    TMP DP  RH WIND       PRES   REMARKS
ALBANY         MOSUNNY   90  63  40 N9        29.95F HX  91
6HR MIN TEMP:  73; 6HR MAX TEMP:  90;

NEW YORK CITY  PTSUNNY   92  58  31 NE5       29.95F HX  91
6HR MIN TEMP:  79; 6HR MAX TEMP:  92;

$$

ANZALL-281900-
MARINE OBSERVATIONS

STATION/POSITION TIME  TEMP    WIND        PRES    VSBY  WAVE
                       AIR SEA DIR/SP/G                  HT/PER
                 (UTC) (F)     (DEG/KT/KT) (MB)    (MI)  (FT/S)
BOSTON BUOY      1750   74 73  100/  6/  8 1014.3F         2/ 8
BUZZARDS BAY     1700          210/ 11/ 11 1015.3F
NANTUCKET SOUND  1750   73 73  240/ 10/ 14 1013.9F         1/ 3
MASS BAY-STELLWA 1704   72 69  100/  4/  4   N/A    1 7/8  2/ 8
ISLE OF SHOALS   1700   72      90/  9/  9 1014.0S
S OF BLOCK IS    1708      72                N/A           2/11
$$

......................KEY.........................
  SKY/WX - SKY CONDITION/PRESENT WEATHER
  TMP    - TEMPERATURE IN FAHRENHEIT
  DWPT   - DEWPOINT IN FAHRENHEIT
  RH     - RELATIVE HUMIDITY IN PERCENT
  WIND   - DIRECTION AND SPEED IN MPH
  PRES   - MEAN SEA LEVEL PRESSURE IN INCHES OF HG
  WCI    - WIND CHILL INDEX
  VSB    - VISIBILITY IN MILES
  HX     - HEAT INDEX
  TC     - TEMPERATURE IN CELSIUS
  VRB    - VARIABLE WIND DIRECTION
  N/A    - NOT AVAILABLE



USA.gov is the U.S. government's official web portal to all federal, state and local government web resources and services.